Time,TemperatureF,DewpointF,PressureIn,WindDirection,WindDirectionDegrees,WindSpeedMPH,WindSpeedGustMPH,Humidity,HourlyPrecipIn,Conditions,Clouds,dailyrainin,SoftwareType,DateUTC
2013-10-06 00:02:00,61.3,55.4,30.07,North,10,0.0,0.0,81,0.00,,,0.00,meteohub,2013-10-06 04:02:00,
2013-10-06 00:07:00,61.3,55.4,30.07,NE,55,0.0,0.0,81,0.00,,,0.00,meteohub,2013-10-06 04:07:00,
2013-10-06 00:12:00,61.3,55.8,30.07,NE,55,0.0,0.0,82,0.00,,,0.00,meteohub,2013-10-06 04:12:00,
2013-10-06 00:17:00,61.2,55.6,30.07,ENE,78,0.0,0.0,82,0.00,,,0.00,meteohub,2013-10-06 04:17:00,
2013-10-06 00:22:00,61.2,55.6,30.07,ENE,78,0.0,0.0,82,0.00,,,0.00,meteohub,2013-10-06 04:22:00,
2013-10-06 00:27:00,60.8,55.2,30.07,ENE,78,0.0,0.0,82,0.00,,,0.00,meteohub,2013-10-06 04:27:00,
2013-10-06 00:32:00,60.6,55.0,30.07,ENE,78,0.0,0.0,82,0.00,,,0.00,meteohub,2013-10-06 04:32:00,
2013-10-06 00:42:00,60.3,55.0,30.04,ENE,78,0.0,0.0,83,0.00,,,0.00,meteohub,2013-10-06 04:42:00,
2013-10-06 00:47:00,60.1,54.9,30.04,ENE,78,0.0,0.0,83,0.00,,,0.00,meteohub,2013-10-06 04:47:00,
2013-10-06 00:52:00,60.1,54.9,30.04,ENE,78,0.0,0.0,83,0.00,,,0.00,meteohub,2013-10-06 04:52:00,
2013-10-06 00:57:00,59.9,54.7,30.04,ENE,78,0.0,0.0,83,0.00,,,0.00,meteohub,2013-10-06 04:57:00,
2013-10-06 01:02:00,59.9,54.7,30.04,ENE,78,0.0,0.0,83,0.00,,,0.00,meteohub,2013-10-06 05:02:00,
2013-10-06 01:07:00,59.7,54.5,30.04,ENE,78,0.0,0.0,83,0.00,,,0.00,meteohub,2013-10-06 05:07:00,
2013-10-06 01:12:00,59.5,54.3,30.04,ENE,78,0.0,0.0,83,0.00,,,0.00,meteohub,2013-10-06 05:12:00,
2013-10-06 01:17:00,59.4,54.1,30.04,ENE,78,0.0,0.0,83,0.00,,,0.00,meteohub,2013-10-06 05:17:00,
2013-10-06 01:22:00,59.4,54.1,30.04,ENE,78,0.0,0.0,83,0.00,,,0.00,meteohub,2013-10-06 05:22:00,
2013-10-06 01:27:00,59.2,54.0,30.04,ENE,78,0.0,0.0,83,0.00,,,0.00,meteohub,2013-10-06 05:27:00,
2013-10-06 01:32:00,59.2,54.0,30.04,ENE,78,0.0,0.0,83,0.00,,,0.00,meteohub,2013-10-06 05:32:00,
2013-10-06 01:37:00,59.4,54.1,30.04,ENE,78,0.0,0.0,83,0.00,,,0.00,meteohub,2013-10-06 05:37:00,
2013-10-06 01:42:00,59.4,54.5,30.04,ENE,78,0.0,0.0,84,0.00,,,0.00,meteohub,2013-10-06 05:42:00,
2013-10-06 01:47:00,59.2,54.3,30.04,ENE,78,0.0,0.0,84,0.00,,,0.00,meteohub,2013-10-06 05:47:00,
2013-10-06 01:52:00,59.0,54.1,30.04,ENE,78,0.0,0.0,84,0.00,,,0.00,meteohub,2013-10-06 05:52:00,
2013-10-06 01:57:00,58.8,54.0,30.04,ENE,78,0.0,0.0,84,0.00,,,0.00,meteohub,2013-10-06 05:57:00,
2013-10-06 02:02:00,58.8,54.3,30.04,ENE,78,0.0,0.0,85,0.00,,,0.00,meteohub,2013-10-06 06:02:00,
2013-10-06 02:07:00,58.8,54.7,30.04,ENE,78,0.0,0.0,86,0.00,,,0.00,meteohub,2013-10-06 06:07:00,
2013-10-06 02:12:00,58.6,54.5,30.04,ENE,78,0.0,0.0,86,0.00,,,0.00,meteohub,2013-10-06 06:12:00,
2013-10-06 02:17:00,58.6,54.9,30.04,ENE,78,0.0,0.0,87,0.00,,,0.00,meteohub,2013-10-06 06:17:00,
2013-10-06 02:22:00,58.8,55.0,30.04,ENE,78,0.0,0.0,87,0.00,,,0.00,meteohub,2013-10-06 06:22:00,
2013-10-06 02:27:00,58.6,55.0,30.04,ENE,78,0.0,0.0,88,0.00,,,0.00,meteohub,2013-10-06 06:27:00,
2013-10-06 02:32:00,58.6,55.0,30.01,ENE,78,0.0,0.0,88,0.00,,,0.00,meteohub,2013-10-06 06:32:00,
2013-10-06 02:37:00,58.5,54.7,30.01,ENE,78,0.0,0.0,87,0.00,,,0.00,meteohub,2013-10-06 06:37:00,
2013-10-06 02:42:00,58.3,54.5,30.04,ENE,78,0.0,0.0,87,0.00,,,0.00,meteohub,2013-10-06 06:42:00,
2013-10-06 02:47:00,58.3,54.7,30.04,ENE,78,0.0,0.0,88,0.00,,,0.00,meteohub,2013-10-06 06:47:00,
2013-10-06 02:52:00,58.1,54.5,30.04,ENE,78,0.0,0.0,88,0.00,,,0.00,meteohub,2013-10-06 06:52:00,
2013-10-06 02:57:00,58.1,54.9,30.04,ENE,78,0.0,0.0,89,0.00,,,0.00,meteohub,2013-10-06 06:57:00,
2013-10-06 03:02:00,58.1,54.9,30.04,ENE,78,0.0,0.0,89,0.00,,,0.00,meteohub,2013-10-06 07:02:00,
2013-10-06 03:07:00,58.1,54.9,30.04,ENE,78,0.0,0.0,89,0.00,,,0.00,meteohub,2013-10-06 07:07:00,
2013-10-06 03:12:00,58.1,55.2,30.04,ENE,78,0.0,0.0,90,0.00,,,0.00,meteohub,2013-10-06 07:12:00,
2013-10-06 03:17:00,58.1,55.2,30.04,ENE,78,0.0,0.0,90,0.00,,,0.00,meteohub,2013-10-06 07:17:00,
2013-10-06 03:22:00,58.1,55.2,30.04,ENE,78,0.0,0.0,90,0.00,,,0.00,meteohub,2013-10-06 07:22:00,
2013-10-06 03:27:00,58.1,55.2,30.04,ENE,78,0.0,0.0,90,0.00,,,0.00,meteohub,2013-10-06 07:27:00,
2013-10-06 03:32:00,58.1,55.2,30.04,NW,325,2.0,0.0,90,0.00,,,0.00,meteohub,2013-10-06 07:32:00,
2013-10-06 03:37:00,57.9,55.0,30.04,NW,325,0.0,2.0,90,0.00,,,0.00,meteohub,2013-10-06 07:37:00,
2013-10-06 03:42:00,57.9,55.0,30.04,NW,325,0.0,2.0,90,0.00,,,0.00,meteohub,2013-10-06 07:42:00,
2013-10-06 03:47:00,57.7,54.9,30.04,NW,325,0.0,2.0,90,0.00,,,0.00,meteohub,2013-10-06 07:47:00,
2013-10-06 03:52:00,57.7,55.2,30.04,North,10,0.0,0.0,91,0.00,,,0.00,meteohub,2013-10-06 07:52:00,
2013-10-06 03:57:00,57.6,55.0,30.04,North,10,0.0,0.0,91,0.00,,,0.00,meteohub,2013-10-06 07:57:00,
2013-10-06 04:02:00,57.6,55.0,30.04,North,10,0.0,0.0,91,0.00,,,0.00,meteohub,2013-10-06 08:02:00,
2013-10-06 04:07:00,57.6,55.0,30.04,NNW,348,0.0,0.0,91,0.00,,,0.00,meteohub,2013-10-06 08:07:00,
2013-10-06 04:12:00,57.6,55.0,30.04,NNW,348,0.0,0.0,91,0.00,,,0.00,meteohub,2013-10-06 08:12:00,
2013-10-06 04:17:00,57.6,55.0,30.04,North,10,0.0,0.0,91,0.00,,,0.00,meteohub,2013-10-06 08:17:00,
2013-10-06 04:22:00,57.6,55.0,30.04,North,10,0.0,0.0,91,0.00,,,0.00,meteohub,2013-10-06 08:22:00,
2013-10-06 04:27:00,57.6,55.2,30.04,North,10,0.0,0.0,92,0.00,,,0.00,meteohub,2013-10-06 08:27:00,
2013-10-06 04:32:00,57.4,55.0,30.04,North,10,0.0,0.0,92,0.00,,,0.00,meteohub,2013-10-06 08:32:00,
2013-10-06 04:37:00,57.4,55.0,30.04,NNW,348,0.0,0.0,92,0.00,,,0.00,meteohub,2013-10-06 08:37:00,
2013-10-06 04:42:00,57.2,54.9,30.04,NNW,348,0.0,0.0,92,0.00,,,0.00,meteohub,2013-10-06 08:42:00,
2013-10-06 04:47:00,57.2,54.7,30.04,NNW,348,0.0,0.0,91,0.00,,,0.00,meteohub,2013-10-06 08:47:00,
2013-10-06 04:52:00,57.2,54.9,30.04,NNW,348,0.0,0.0,92,0.00,,,0.00,meteohub,2013-10-06 08:52:00,
2013-10-06 04:57:00,57.2,54.9,30.04,NNW,348,0.0,0.0,92,0.00,,,0.00,meteohub,2013-10-06 08:57:00,
2013-10-06 05:02:00,57.2,54.9,30.04,NNW,348,0.0,0.0,92,0.00,,,0.00,meteohub,2013-10-06 09:02:00,
2013-10-06 05:07:00,57.0,54.7,30.04,NNW,348,0.0,0.0,92,0.00,,,0.00,meteohub,2013-10-06 09:07:00,
2013-10-06 05:12:00,57.0,55.0,30.04,North,10,0.0,0.0,93,0.00,,,0.00,meteohub,2013-10-06 09:12:00,
2013-10-06 05:17:00,57.0,55.0,30.04,North,10,0.0,0.0,93,0.00,,,0.00,meteohub,2013-10-06 09:17:00,
2013-10-06 05:22:00,57.0,55.0,30.04,NNW,348,0.0,0.0,93,0.00,,,0.00,meteohub,2013-10-06 09:22:00,
2013-10-06 05:27:00,57.0,55.0,30.04,North,10,0.0,0.0,93,0.00,,,0.00,meteohub,2013-10-06 09:27:00,
2013-10-06 05:32:00,56.8,54.9,30.04,NNW,348,0.0,0.0,93,0.00,,,0.00,meteohub,2013-10-06 09:32:00,
2013-10-06 05:37:00,56.8,54.9,30.04,North,10,0.0,0.0,93,0.00,,,0.00,meteohub,2013-10-06 09:37:00,
2013-10-06 05:42:00,56.8,54.9,30.04,North,10,0.0,0.0,93,0.00,,,0.00,meteohub,2013-10-06 09:42:00,
2013-10-06 05:47:00,56.8,54.9,30.04,North,10,0.0,0.0,93,0.00,,,0.00,meteohub,2013-10-06 09:47:00,
2013-10-06 05:52:00,56.8,55.2,30.04,North,10,0.0,0.0,94,0.00,,,0.00,meteohub,2013-10-06 09:52:00,
2013-10-06 05:57:00,56.8,55.2,30.04,NW,325,0.0,0.0,94,0.00,,,0.00,meteohub,2013-10-06 09:57:00,
2013-10-06 06:02:00,56.8,55.2,30.04,NNW,348,0.0,0.0,94,0.00,,,0.00,meteohub,2013-10-06 10:02:00,
2013-10-06 06:07:00,56.7,55.0,30.04,NNW,348,0.0,0.0,94,0.00,,,0.00,meteohub,2013-10-06 10:07:00,
2013-10-06 06:12:00,56.8,55.2,30.04,North,10,0.0,0.0,94,0.00,,,0.00,meteohub,2013-10-06 10:12:00,
2013-10-06 06:17:00,56.7,55.0,30.04,North,10,0.0,0.0,94,0.00,,,0.00,meteohub,2013-10-06 10:17:00,
2013-10-06 06:22:00,56.7,55.0,30.04,North,10,0.0,0.0,94,0.00,,,0.00,meteohub,2013-10-06 10:22:00,
2013-10-06 06:27:00,56.7,55.0,30.04,North,10,0.0,0.0,94,0.00,,,0.00,meteohub,2013-10-06 10:27:00,
2013-10-06 06:32:00,56.7,55.0,30.04,NW,325,0.0,0.0,94,0.00,,,0.00,meteohub,2013-10-06 10:32:00,
2013-10-06 06:37:00,56.5,54.9,30.04,NNW,348,0.0,0.0,94,0.00,,,0.00,meteohub,2013-10-06 10:37:00,
2013-10-06 06:42:00,56.5,54.9,30.04,NNW,348,0.0,0.0,94,0.00,,,0.00,meteohub,2013-10-06 10:42:00,
2013-10-06 06:47:00,56.3,54.7,30.04,NNW,348,0.0,0.0,94,0.00,,,0.00,meteohub,2013-10-06 10:47:00,
2013-10-06 06:52:00,56.3,54.7,30.04,NW,325,0.0,0.0,94,0.00,,,0.00,meteohub,2013-10-06 10:52:00,
2013-10-06 06:57:00,56.3,54.7,30.04,NNW,348,3.0,0.0,94,0.00,,,0.00,meteohub,2013-10-06 10:57:00,
2013-10-06 07:02:00,56.3,54.7,30.04,North,10,0.0,4.0,94,0.00,,,0.00,meteohub,2013-10-06 11:02:00,
2013-10-06 07:07:00,56.3,54.7,30.04,NNW,348,0.0,4.0,94,0.00,,,0.00,meteohub,2013-10-06 11:07:00,
2013-10-06 07:12:00,56.3,54.7,30.04,NNW,348,0.0,4.0,94,0.00,,,0.00,meteohub,2013-10-06 11:12:00,
2013-10-06 07:17:00,56.3,54.7,30.04,NNW,348,0.0,0.0,94,0.00,,,0.00,meteohub,2013-10-06 11:17:00,
2013-10-06 07:22:00,56.3,54.7,30.04,NNW,348,0.0,0.0,94,0.00,,,0.00,meteohub,2013-10-06 11:22:00,
2013-10-06 07:27:00,56.3,54.9,30.04,NNW,348,0.0,0.0,95,0.00,,,0.00,meteohub,2013-10-06 11:27:00,
2013-10-06 07:32:00,56.3,54.7,30.04,NNW,348,0.0,0.0,94,0.00,,,0.00,meteohub,2013-10-06 11:32:00,
2013-10-06 07:37:00,56.3,54.7,30.04,NNW,348,0.0,0.0,94,0.00,,,0.00,meteohub,2013-10-06 11:37:00,
2013-10-06 07:42:00,56.3,54.9,30.04,North,10,0.0,0.0,95,0.00,,,0.00,meteohub,2013-10-06 11:42:00,
2013-10-06 07:47:00,56.3,54.9,30.04,NE,55,0.0,0.0,95,0.00,,,0.00,meteohub,2013-10-06 11:47:00,
2013-10-06 07:52:00,56.1,54.7,30.04,NE,55,0.0,0.0,95,0.00,,,0.00,meteohub,2013-10-06 11:52:00,
2013-10-06 07:57:00,56.1,54.7,30.01,North,10,0.0,0.0,95,0.00,,,0.00,meteohub,2013-10-06 11:57:00,
2013-10-06 08:02:00,56.1,54.7,30.01,NW,325,0.0,0.0,95,0.00,,,0.00,meteohub,2013-10-06 12:02:00,
2013-10-06 08:07:00,56.1,54.7,30.01,NW,325,0.0,0.0,95,0.00,,,0.00,meteohub,2013-10-06 12:07:00,
2013-10-06 08:12:00,55.9,54.5,30.01,NNW,348,0.0,3.0,95,0.00,,,0.00,meteohub,2013-10-06 12:12:00,
2013-10-06 08:17:00,56.1,54.7,30.01,NNW,348,0.0,3.0,95,0.00,,,0.00,meteohub,2013-10-06 12:17:00,
2013-10-06 08:22:00,55.9,54.5,30.01,NNW,348,0.0,3.0,95,0.00,,,0.00,meteohub,2013-10-06 12:22:00,
2013-10-06 08:27:00,56.1,54.7,30.04,NNW,348,0.0,0.0,95,0.00,,,0.00,meteohub,2013-10-06 12:27:00,
2013-10-06 08:32:00,56.1,54.7,30.04,NNW,348,0.0,0.0,95,0.00,,,0.00,meteohub,2013-10-06 12:32:00,
2013-10-06 08:37:00,56.1,54.7,30.04,NNW,348,0.0,0.0,95,0.00,,,0.00,meteohub,2013-10-06 12:37:00,
2013-10-06 08:42:00,56.3,54.9,30.04,North,10,0.0,0.0,95,0.00,,,0.00,meteohub,2013-10-06 12:42:00,
2013-10-06 08:47:00,56.5,55.4,30.04,North,10,0.0,0.0,96,0.00,,,0.00,meteohub,2013-10-06 12:47:00,
2013-10-06 08:52:00,56.5,55.4,30.04,WNW,302,0.0,0.0,96,0.00,,,0.00,meteohub,2013-10-06 12:52:00,
2013-10-06 08:57:00,56.5,55.4,30.01,NNW,348,0.0,3.0,96,0.00,,,0.00,meteohub,2013-10-06 12:57:00,
2013-10-06 09:02:00,56.5,55.4,30.01,NNW,348,0.0,3.0,96,0.00,,,0.00,meteohub,2013-10-06 13:02:00,
2013-10-06 09:07:00,56.7,55.6,30.01,NW,325,0.0,3.0,96,0.00,,,0.00,meteohub,2013-10-06 13:07:00,
2013-10-06 09:12:00,56.8,55.9,30.01,NW,325,0.0,0.0,97,0.00,,,0.00,meteohub,2013-10-06 13:12:00,
2013-10-06 09:17:00,57.0,56.1,30.01,NW,325,0.0,3.0,97,0.00,,,0.00,meteohub,2013-10-06 13:17:00,
2013-10-06 09:22:00,57.0,56.1,30.01,WSW,258,0.0,3.0,97,0.00,,,0.00,meteohub,2013-10-06 13:22:00,
2013-10-06 09:27:00,57.2,56.3,30.04,North,10,0.0,3.0,97,0.00,,,0.00,meteohub,2013-10-06 13:27:00,
2013-10-06 09:32:00,57.2,56.3,30.04,NNE,32,2.0,5.0,97,0.00,,,0.00,meteohub,2013-10-06 13:32:00,
2013-10-06 09:37:00,57.4,56.5,30.04,ENE,78,0.0,5.0,97,0.00,,,0.00,meteohub,2013-10-06 13:37:00,
2013-10-06 09:42:00,57.6,56.7,30.07,North,10,0.0,4.0,97,0.00,,,0.00,meteohub,2013-10-06 13:42:00,
2013-10-06 09:47:00,57.7,56.8,30.07,North,10,0.0,3.0,97,0.00,,,0.00,meteohub,2013-10-06 13:47:00,
2013-10-06 09:52:00,58.1,57.2,30.07,North,10,0.0,5.0,97,0.00,,,0.00,meteohub,2013-10-06 13:52:00,
2013-10-06 09:57:00,58.1,57.2,30.04,North,10,4.0,5.0,97,0.00,,,0.00,meteohub,2013-10-06 13:57:00,
2013-10-06 10:02:00,58.5,57.9,30.04,WNW,302,2.0,5.0,98,0.00,,,0.00,meteohub,2013-10-06 14:02:00,
2013-10-06 10:07:00,58.6,57.7,30.04,WNW,302,0.0,4.0,97,0.00,,,0.00,meteohub,2013-10-06 14:07:00,
2013-10-06 10:12:00,59.0,58.1,30.04,WSW,258,0.0,4.0,97,0.00,,,0.00,meteohub,2013-10-06 14:12:00,
2013-10-06 10:17:00,59.2,58.3,30.04,North,10,0.0,3.0,97,0.00,,,0.00,meteohub,2013-10-06 14:17:00,
2013-10-06 10:22:00,59.7,58.8,30.04,NNW,348,0.0,5.0,97,0.00,,,0.00,meteohub,2013-10-06 14:22:00,
2013-10-06 10:27:00,60.1,59.2,30.04,North,10,0.0,5.0,97,0.00,,,0.00,meteohub,2013-10-06 14:27:00,
2013-10-06 10:32:00,60.4,59.5,30.04,SSE,168,0.0,3.0,97,0.00,,,0.00,meteohub,2013-10-06 14:32:00,
2013-10-06 10:37:00,60.8,59.9,30.04,NNE,32,0.0,2.0,97,0.00,,,0.00,meteohub,2013-10-06 14:37:00,
2013-10-06 10:42:00,61.0,60.1,30.04,NNW,348,0.0,3.0,97,0.00,,,0.00,meteohub,2013-10-06 14:42:00,
2013-10-06 10:47:00,61.7,60.8,30.04,WNW,302,3.0,3.0,97,0.00,,,0.00,meteohub,2013-10-06 14:47:00,
2013-10-06 10:52:00,62.6,61.5,30.04,ENE,78,0.0,3.0,96,0.00,,,0.00,meteohub,2013-10-06 14:52:00,
2013-10-06 10:57:00,63.0,61.9,30.01,ENE,78,0.0,4.0,96,0.00,,,0.00,meteohub,2013-10-06 14:57:00,
2013-10-06 11:02:00,63.7,62.6,30.01,WNW,302,0.0,4.0,96,0.00,,,0.00,meteohub,2013-10-06 15:02:00,
2013-10-06 11:07:00,64.0,62.6,30.01,WNW,302,0.0,4.0,95,0.00,,,0.00,meteohub,2013-10-06 15:07:00,
2013-10-06 11:12:00,64.6,63.1,30.01,WNW,302,0.0,4.0,95,0.00,,,0.00,meteohub,2013-10-06 15:12:00,
2013-10-06 11:17:00,64.9,63.1,30.01,WNW,302,0.0,3.0,94,0.00,,,0.00,meteohub,2013-10-06 15:17:00,
2013-10-06 11:22:00,65.7,63.9,30.01,WNW,302,0.0,3.0,94,0.00,,,0.00,meteohub,2013-10-06 15:22:00,
2013-10-06 11:27:00,66.6,64.8,30.01,SSW,212,5.0,5.0,94,0.00,,,0.00,meteohub,2013-10-06 15:27:00,
2013-10-06 11:32:00,67.5,65.7,30.01,NNW,348,9.0,9.0,94,0.00,,,0.00,meteohub,2013-10-06 15:32:00,
2013-10-06 11:37:00,68.4,66.0,30.01,NW,325,7.0,9.0,92,0.00,,,0.00,meteohub,2013-10-06 15:37:00,
2013-10-06 11:42:00,70.3,65.3,29.99,WSW,258,9.0,13.0,84,0.00,,,0.00,meteohub,2013-10-06 15:42:00,
2013-10-06 11:47:00,71.1,64.6,29.99,West,280,12.0,22.0,80,0.00,,,0.00,meteohub,2013-10-06 15:47:00,
2013-10-06 11:52:00,71.6,64.8,29.99,NNW,348,2.0,22.0,79,0.00,,,0.00,meteohub,2013-10-06 15:52:00,
2013-10-06 11:57:00,72.1,64.9,29.99,SSW,212,7.0,22.0,78,0.00,,,0.00,meteohub,2013-10-06 15:57:00,
2013-10-06 12:02:00,72.9,64.9,29.99,NW,325,11.0,12.0,76,0.00,,,0.00,meteohub,2013-10-06 16:02:00,
2013-10-06 12:07:00,73.0,64.2,29.99,WSW,258,6.0,14.0,74,0.00,,,0.00,meteohub,2013-10-06 16:07:00,
2013-10-06 12:12:00,73.6,64.0,29.99,NNW,348,6.0,16.0,72,0.00,,,0.00,meteohub,2013-10-06 16:12:00,
2013-10-06 12:17:00,74.3,63.1,29.99,North,10,2.0,16.0,68,0.00,,,0.00,meteohub,2013-10-06 16:17:00,
2013-10-06 12:22:00,74.5,63.7,29.99,WSW,258,3.0,13.0,69,0.00,,,0.00,meteohub,2013-10-06 16:22:00,
2013-10-06 12:27:00,74.7,62.6,29.99,WSW,258,5.0,11.0,66,0.00,,,0.00,meteohub,2013-10-06 16:27:00,
2013-10-06 12:32:00,75.0,62.4,29.99,ENE,78,2.0,11.0,65,0.00,,,0.00,meteohub,2013-10-06 16:32:00,
2013-10-06 12:42:00,74.5,61.0,30.01,NNW,348,8.0,12.0,63,0.00,,,0.00,meteohub,2013-10-06 16:42:00,
2013-10-06 12:47:00,74.1,59.4,30.01,WSW,258,10.0,15.0,60,0.00,,,0.00,meteohub,2013-10-06 16:47:00,
2013-10-06 12:52:00,74.1,59.9,30.01,WSW,258,2.0,15.0,61,0.00,,,0.00,meteohub,2013-10-06 16:52:00,
2013-10-06 12:57:00,74.5,59.7,29.99,SSW,212,3.0,15.0,60,0.00,,,0.00,meteohub,2013-10-06 16:57:00,
2013-10-06 13:02:00,75.0,60.3,29.99,WNW,302,11.0,11.0,60,0.00,,,0.00,meteohub,2013-10-06 17:02:00,
2013-10-06 13:07:00,75.7,60.8,29.99,South,190,7.0,12.0,60,0.00,,,0.00,meteohub,2013-10-06 17:07:00,
2013-10-06 13:12:00,75.7,59.4,29.99,NNE,32,2.0,12.0,57,0.00,,,0.00,meteohub,2013-10-06 17:12:00,
2013-10-06 13:17:00,75.9,60.1,29.99,South,190,8.0,12.0,58,0.00,,,0.00,meteohub,2013-10-06 17:17:00,
2013-10-06 13:22:00,75.7,58.5,29.99,SW,235,5.0,10.0,55,0.00,,,0.00,meteohub,2013-10-06 17:22:00,
2013-10-06 13:27:00,76.3,59.0,29.99,South,190,3.0,10.0,55,0.00,,,0.00,meteohub,2013-10-06 17:27:00,
2013-10-06 13:32:00,75.9,57.6,29.99,SSW,212,6.0,10.0,53,0.00,,,0.00,meteohub,2013-10-06 17:32:00,
2013-10-06 13:37:00,75.7,57.4,29.99,East,100,3.0,17.0,53,0.00,,,0.00,meteohub,2013-10-06 17:37:00,
2013-10-06 13:42:00,75.6,56.1,29.96,SSW,212,7.0,17.0,51,0.00,,,0.00,meteohub,2013-10-06 17:42:00,
2013-10-06 13:47:00,76.1,55.6,29.96,WSW,258,3.0,17.0,49,0.00,,,0.00,meteohub,2013-10-06 17:47:00,
2013-10-06 13:52:00,77.0,56.3,29.96,SSW,212,9.0,13.0,49,0.00,,,0.00,meteohub,2013-10-06 17:52:00,
2013-10-06 13:57:00,76.6,56.1,29.96,NNW,348,6.0,17.0,49,0.00,,,0.00,meteohub,2013-10-06 17:57:00,
2013-10-06 14:02:00,76.6,56.1,29.96,ENE,78,6.0,17.0,49,0.00,,,0.00,meteohub,2013-10-06 18:02:00,
2013-10-06 14:07:00,76.6,54.9,29.96,SSW,212,8.0,17.0,47,0.00,,,0.00,meteohub,2013-10-06 18:07:00,
2013-10-06 14:12:00,76.8,56.3,29.93,ENE,78,5.0,14.0,49,0.00,,,0.00,meteohub,2013-10-06 18:12:00,
2013-10-06 14:17:00,77.2,54.9,29.93,WSW,258,11.0,14.0,46,0.00,,,0.00,meteohub,2013-10-06 18:17:00,
2013-10-06 14:22:00,77.9,55.4,29.93,SSW,212,7.0,17.0,46,0.00,,,0.00,meteohub,2013-10-06 18:22:00,
2013-10-06 14:27:00,77.9,54.9,29.93,SW,235,3.0,17.0,45,0.00,,,0.00,meteohub,2013-10-06 18:27:00,
2013-10-06 14:32:00,77.9,55.4,29.93,South,190,2.0,17.0,46,0.00,,,0.00,meteohub,2013-10-06 18:32:00,
2013-10-06 14:37:00,78.6,55.6,29.93,SSW,212,4.0,15.0,45,0.00,,,0.00,meteohub,2013-10-06 18:37:00,
2013-10-06 14:42:00,78.8,55.8,29.90,SSW,212,3.0,13.0,45,0.00,,,0.00,meteohub,2013-10-06 18:42:00,
2013-10-06 14:47:00,78.4,55.9,29.90,NE,55,2.0,13.0,46,0.00,,,0.00,meteohub,2013-10-06 18:47:00,
2013-10-06 14:52:00,79.0,55.8,29.90,South,190,4.0,13.0,45,0.00,,,0.00,meteohub,2013-10-06 18:52:00,
2013-10-06 14:57:00,78.4,55.4,29.90,NNW,348,6.0,9.0,45,0.00,,,0.00,meteohub,2013-10-06 18:57:00,
2013-10-06 15:02:00,78.4,55.9,29.90,SSE,168,5.0,12.0,46,0.00,,,0.00,meteohub,2013-10-06 19:02:00,
2013-10-06 15:07:00,77.9,54.3,29.90,NNE,32,5.0,12.0,44,0.00,,,0.00,meteohub,2013-10-06 19:07:00,
2013-10-06 15:12:00,77.7,54.1,29.90,South,190,4.0,10.0,44,0.00,,,0.00,meteohub,2013-10-06 19:12:00,
2013-10-06 15:17:00,77.7,54.7,29.90,North,10,6.0,10.0,45,0.00,,,0.00,meteohub,2013-10-06 19:17:00,
2013-10-06 15:22:00,77.5,54.5,29.90,NNW,348,12.0,12.0,45,0.00,,,0.00,meteohub,2013-10-06 19:22:00,
2013-10-06 15:27:00,78.4,55.4,29.93,SSW,212,6.0,13.0,45,0.00,,,0.00,meteohub,2013-10-06 19:27:00,
2013-10-06 15:32:00,79.2,55.9,29.93,NNW,348,11.0,13.0,45,0.00,,,0.00,meteohub,2013-10-06 19:32:00,
2013-10-06 15:37:00,78.4,54.7,29.93,NE,55,6.0,15.0,44,0.00,,,0.00,meteohub,2013-10-06 19:37:00,
2013-10-06 15:42:00,78.6,54.9,29.93,West,280,6.0,20.0,44,0.00,,,0.00,meteohub,2013-10-06 19:42:00,
2013-10-06 15:47:00,78.3,55.2,29.93,East,100,4.0,20.0,45,0.00,,,0.00,meteohub,2013-10-06 19:47:00,
2013-10-06 15:52:00,77.5,54.0,29.93,SW,235,5.0,9.0,44,0.00,,,0.00,meteohub,2013-10-06 19:52:00,
2013-10-06 15:57:00,77.9,54.9,29.93,NNW,348,11.0,11.0,45,0.00,,,0.00,meteohub,2013-10-06 19:57:00,
2013-10-06 16:02:00,78.4,55.4,29.93,SSE,168,2.0,12.0,45,0.00,,,0.00,meteohub,2013-10-06 20:02:00,
2013-10-06 16:07:00,79.0,55.2,29.93,NNW,348,7.0,12.0,44,0.00,,,0.00,meteohub,2013-10-06 20:07:00,
2013-10-06 16:12:00,79.0,55.2,29.90,North,10,3.0,12.0,44,0.00,,,0.00,meteohub,2013-10-06 20:12:00,
2013-10-06 16:17:00,78.6,54.9,29.90,WSW,258,8.0,12.0,44,0.00,,,0.00,meteohub,2013-10-06 20:17:00,
2013-10-06 16:22:00,78.6,54.9,29.90,SSW,212,7.0,17.0,44,0.00,,,0.00,meteohub,2013-10-06 20:22:00,
2013-10-06 16:27:00,78.4,54.7,29.93,NW,325,3.0,17.0,44,0.00,,,0.00,meteohub,2013-10-06 20:27:00,
2013-10-06 16:32:00,77.9,54.3,29.93,SSE,168,3.0,17.0,44,0.00,,,0.00,meteohub,2013-10-06 20:32:00,
2013-10-06 16:37:00,77.5,54.0,29.93,West,280,3.0,11.0,44,0.00,,,0.00,meteohub,2013-10-06 20:37:00,
2013-10-06 16:42:00,77.4,53.1,29.93,South,190,5.0,11.0,43,0.00,,,0.00,meteohub,2013-10-06 20:42:00,
2013-10-06 16:47:00,77.2,53.6,29.93,ENE,78,5.0,9.0,44,0.00,,,0.00,meteohub,2013-10-06 20:47:00,
2013-10-06 16:52:00,76.8,53.2,29.93,North,10,10.0,10.0,44,0.00,,,0.00,meteohub,2013-10-06 20:52:00,
2013-10-06 16:57:00,76.6,53.8,29.90,North,10,10.0,11.0,45,0.00,,,0.00,meteohub,2013-10-06 20:57:00,
2013-10-06 17:02:00,76.5,53.6,29.90,North,10,4.0,12.0,45,0.00,,,0.00,meteohub,2013-10-06 21:02:00,
2013-10-06 17:12:00,76.3,52.2,29.87,ENE,78,3.0,13.0,43,0.00,,,0.00,meteohub,2013-10-06 21:12:00,
2013-10-06 17:17:00,76.3,52.7,29.87,WNW,302,4.0,13.0,44,0.00,,,0.00,meteohub,2013-10-06 21:17:00,
2013-10-06 17:22:00,76.1,52.7,29.87,NW,325,5.0,15.0,44,0.00,,,0.00,meteohub,2013-10-06 21:22:00,
2013-10-06 17:27:00,76.1,52.7,29.90,NNW,348,5.0,15.0,44,0.00,,,0.00,meteohub,2013-10-06 21:27:00,
2013-10-06 17:32:00,75.9,51.8,29.90,SSE,168,7.0,15.0,43,0.00,,,0.00,meteohub,2013-10-06 21:32:00,
2013-10-06 17:37:00,75.4,52.5,29.90,SW,235,13.0,13.0,45,0.00,,,0.00,meteohub,2013-10-06 21:37:00,
2013-10-06 17:42:00,75.2,52.3,29.90,NE,55,6.0,13.0,45,0.00,,,0.00,meteohub,2013-10-06 21:42:00,
2013-10-06 17:47:00,74.8,53.2,29.90,NE,55,0.0,13.0,47,0.00,,,0.00,meteohub,2013-10-06 21:47:00,
2013-10-06 17:52:00,75.0,52.9,29.90,NW,325,9.0,13.0,46,0.00,,,0.00,meteohub,2013-10-06 21:52:00,
2013-10-06 17:57:00,74.3,52.7,29.90,NNW,348,8.0,11.0,47,0.00,,,0.00,meteohub,2013-10-06 21:57:00,
2013-10-06 18:02:00,73.9,53.1,29.90,NE,55,4.0,11.0,48,0.00,,,0.00,meteohub,2013-10-06 22:02:00,
2013-10-06 18:07:00,73.9,53.1,29.90,North,10,2.0,11.0,48,0.00,,,0.00,meteohub,2013-10-06 22:07:00,
2013-10-06 18:12:00,73.9,53.1,29.90,NW,325,3.0,8.0,48,0.00,,,0.00,meteohub,2013-10-06 22:12:00,
2013-10-06 18:17:00,73.8,52.9,29.90,SE,145,3.0,6.0,48,0.00,,,0.00,meteohub,2013-10-06 22:17:00,
2013-10-06 18:22:00,73.0,53.8,29.90,SSE,168,6.0,6.0,51,0.00,,,0.00,meteohub,2013-10-06 22:22:00,
2013-10-06 18:27:00,72.7,54.1,29.90,NE,55,5.0,6.0,52,0.00,,,0.00,meteohub,2013-10-06 22:27:00,
2013-10-06 18:32:00,72.1,53.6,29.90,SE,145,3.0,6.0,52,0.00,,,0.00,meteohub,2013-10-06 22:32:00,
2013-10-06 18:37:00,71.4,54.0,29.90,ESE,122,6.0,6.0,54,0.00,,,0.00,meteohub,2013-10-06 22:37:00,
2013-10-06 18:42:00,71.2,53.8,29.93,SSE,168,5.0,8.0,54,0.00,,,0.00,meteohub,2013-10-06 22:42:00,
2013-10-06 18:47:00,71.4,53.4,29.93,ESE,122,4.0,8.0,53,0.00,,,0.00,meteohub,2013-10-06 22:47:00,
2013-10-06 18:52:00,70.9,54.0,29.93,SSE,168,5.0,8.0,55,0.00,,,0.00,meteohub,2013-10-06 22:52:00,
2013-10-06 18:57:00,70.3,54.0,29.90,ENE,78,3.0,6.0,56,0.00,,,0.00,meteohub,2013-10-06 22:57:00,
2013-10-06 19:02:00,70.2,54.1,29.90,SE,145,5.0,6.0,57,0.00,,,0.00,meteohub,2013-10-06 23:02:00,
2013-10-06 19:07:00,69.8,54.0,29.90,SE,145,5.0,9.0,57,0.00,,,0.00,meteohub,2013-10-06 23:07:00,
2013-10-06 19:12:00,69.3,53.8,29.90,SE,145,3.0,9.0,58,0.00,,,0.00,meteohub,2013-10-06 23:12:00,
2013-10-06 19:17:00,69.1,54.1,29.90,SSE,168,3.0,9.0,59,0.00,,,0.00,meteohub,2013-10-06 23:17:00,
2013-10-06 19:22:00,69.1,54.1,29.90,ESE,122,2.0,7.0,59,0.00,,,0.00,meteohub,2013-10-06 23:22:00,
2013-10-06 19:27:00,68.7,54.3,29.93,SSW,212,3.0,7.0,60,0.00,,,0.00,meteohub,2013-10-06 23:27:00,
2013-10-06 19:32:00,68.5,54.1,29.93,WNW,302,2.0,7.0,60,-99.99,,,0.00,meteohub,2013-10-06 23:32:00,
2013-10-06 19:37:00,68.2,54.1,29.93,SE,145,5.0,7.0,61,0.00,,,0.00,meteohub,2013-10-06 23:37:00,
2013-10-06 19:42:00,68.0,54.1,29.93,SSE,168,6.0,7.0,61,0.00,,,0.00,meteohub,2013-10-06 23:42:00,
2013-10-06 19:47:00,67.6,54.1,29.93,SSE,168,6.0,7.0,62,0.00,,,0.00,meteohub,2013-10-06 23:47:00,
2013-10-06 19:52:00,67.6,54.1,29.93,South,190,6.0,7.0,62,0.00,,,0.00,meteohub,2013-10-06 23:52:00,
2013-10-06 19:57:00,67.3,54.3,29.90,ESE,122,7.0,7.0,63,0.00,,,0.00,meteohub,2013-10-06 23:57:00,
2013-10-06 20:02:00,67.1,54.1,29.90,NE,55,0.0,8.0,63,0.00,,,0.00,meteohub,2013-10-07 00:02:00,
2013-10-06 20:07:00,67.1,54.5,29.90,SE,145,3.0,8.0,64,0.00,,,0.00,meteohub,2013-10-07 00:07:00,
2013-10-06 20:12:00,67.1,54.5,29.90,SE,145,8.0,8.0,64,0.00,,,0.00,meteohub,2013-10-07 00:12:00,
2013-10-06 20:17:00,66.9,54.3,29.90,SSE,168,6.0,8.0,64,0.00,,,0.00,meteohub,2013-10-07 00:17:00,
2013-10-06 20:22:00,66.4,54.3,29.90,SSE,168,4.0,8.0,65,0.00,,,0.00,meteohub,2013-10-07 00:22:00,
2013-10-06 20:27:00,66.4,54.3,29.90,SSE,168,2.0,8.0,65,0.00,,,0.00,meteohub,2013-10-07 00:27:00,
2013-10-06 20:32:00,66.4,54.7,29.90,SSE,168,3.0,7.0,66,0.00,,,0.00,meteohub,2013-10-07 00:32:00,
2013-10-06 20:37:00,66.2,54.5,29.90,SE,145,5.0,6.0,66,0.00,,,0.00,meteohub,2013-10-07 00:37:00,
2013-10-06 20:42:00,66.0,54.7,29.90,SSE,168,2.0,7.0,67,0.00,,,0.00,meteohub,2013-10-07 00:42:00,
2013-10-06 20:47:00,65.8,54.5,29.90,SSE,168,4.0,7.0,67,0.00,,,0.00,meteohub,2013-10-07 00:47:00,
2013-10-06 20:52:00,65.7,54.5,29.90,SE,145,0.0,7.0,67,0.00,,,0.00,meteohub,2013-10-07 00:52:00,
2013-10-06 20:57:00,65.7,54.9,29.90,SE,145,5.0,7.0,68,0.00,,,0.00,meteohub,2013-10-07 00:57:00,
2013-10-06 21:02:00,65.7,54.9,29.90,SE,145,4.0,6.0,68,0.00,,,0.00,meteohub,2013-10-07 01:02:00,
2013-10-06 21:07:00,65.5,54.7,29.90,SE,145,4.0,7.0,68,0.00,,,0.00,meteohub,2013-10-07 01:07:00,
2013-10-06 21:12:00,65.5,54.7,29.90,SSE,168,6.0,7.0,68,0.00,,,0.00,meteohub,2013-10-07 01:12:00,
2013-10-06 21:17:00,65.3,54.9,29.90,SSE,168,5.0,6.0,69,0.00,,,0.00,meteohub,2013-10-07 01:17:00,
2013-10-06 21:22:00,65.1,54.7,29.90,SSE,168,0.0,6.0,69,0.00,,,0.00,meteohub,2013-10-07 01:22:00,
2013-10-06 21:27:00,64.9,54.9,29.90,SSE,168,6.0,7.0,70,0.00,,,0.00,meteohub,2013-10-07 01:27:00,
2013-10-06 21:32:00,64.8,54.7,29.90,ENE,78,3.0,7.0,70,0.00,,,0.00,meteohub,2013-10-07 01:32:00,
2013-10-06 21:37:00,64.6,54.5,29.90,SSE,168,4.0,7.0,70,0.00,,,0.00,meteohub,2013-10-07 01:37:00,
2013-10-06 21:42:00,64.6,54.5,29.90,SSE,168,5.0,7.0,70,0.00,,,0.00,meteohub,2013-10-07 01:42:00,
2013-10-06 21:47:00,64.6,55.0,29.90,SSE,168,2.0,7.0,71,0.00,,,0.00,meteohub,2013-10-07 01:47:00,
2013-10-06 21:52:00,64.4,54.9,29.90,East,100,3.0,7.0,71,0.00,,,0.00,meteohub,2013-10-07 01:52:00,
2013-10-06 21:57:00,64.4,54.9,29.90,SSW,212,5.0,9.0,71,0.00,,,0.00,meteohub,2013-10-07 01:57:00,
2013-10-06 22:02:00,64.4,54.9,29.90,NE,55,0.0,9.0,71,0.00,,,0.00,meteohub,2013-10-07 02:02:00,
2013-10-06 22:07:00,64.2,55.0,29.90,SSE,168,5.0,7.0,72,0.00,,,0.00,meteohub,2013-10-07 02:07:00,
2013-10-06 22:12:00,64.2,55.0,29.93,SSE,168,6.0,7.0,72,0.00,,,0.00,meteohub,2013-10-07 02:12:00,
2013-10-06 22:17:00,64.2,55.0,29.93,SE,145,4.0,7.0,72,0.00,,,0.00,meteohub,2013-10-07 02:17:00,
2013-10-06 22:22:00,64.0,55.2,29.93,SSE,168,5.0,8.0,73,0.00,,,0.00,meteohub,2013-10-07 02:22:00,
2013-10-06 22:27:00,64.0,55.2,29.93,South,190,3.0,8.0,73,0.00,,,0.00,meteohub,2013-10-07 02:27:00,
2013-10-06 22:32:00,63.9,55.0,29.93,SSE,168,4.0,8.0,73,0.00,,,0.00,meteohub,2013-10-07 02:32:00,
2013-10-06 22:37:00,63.9,55.0,29.93,ESE,122,5.0,8.0,73,0.00,,,0.00,meteohub,2013-10-07 02:37:00,
2013-10-06 22:42:00,63.9,55.4,29.93,SSE,168,4.0,8.0,74,0.00,,,0.00,meteohub,2013-10-07 02:42:00,
2013-10-06 22:47:00,63.7,55.2,29.93,SE,145,3.0,5.0,74,0.00,,,0.00,meteohub,2013-10-07 02:47:00,
2013-10-06 22:52:00,63.7,55.2,29.93,ESE,122,5.0,5.0,74,0.00,,,0.00,meteohub,2013-10-07 02:52:00,
2013-10-06 22:57:00,63.5,55.0,29.90,SE,145,3.0,5.0,74,0.00,,,0.00,meteohub,2013-10-07 02:57:00,
2013-10-06 23:02:00,63.5,55.0,29.90,SE,145,2.0,5.0,74,0.00,,,0.00,meteohub,2013-10-07 03:02:00,
2013-10-06 23:07:00,63.5,55.0,29.90,WNW,302,2.0,5.0,74,0.00,,,0.00,meteohub,2013-10-07 03:07:00,
2013-10-06 23:12:00,63.1,55.0,29.90,North,10,4.0,7.0,75,0.00,,,0.00,meteohub,2013-10-07 03:12:00,
2013-10-06 23:17:00,62.8,54.7,29.90,ENE,78,4.0,7.0,75,0.00,,,0.00,meteohub,2013-10-07 03:17:00,
2013-10-06 23:22:00,62.8,55.0,29.90,SSE,168,0.0,7.0,76,0.00,,,0.00,meteohub,2013-10-07 03:22:00,
2013-10-06 23:27:00,62.8,55.0,29.87,East,100,4.0,7.0,76,0.00,,,0.00,meteohub,2013-10-07 03:27:00,
2013-10-06 23:32:00,62.6,55.2,29.87,South,190,0.0,5.0,77,0.00,,,0.00,meteohub,2013-10-07 03:32:00,
2013-10-06 23:37:00,62.6,55.2,29.87,South,190,5.0,5.0,77,0.00,,,0.00,meteohub,2013-10-07 03:37:00,
2013-10-06 23:42:00,62.6,55.2,29.90,SSW,212,4.0,6.0,77,0.00,,,0.00,meteohub,2013-10-07 03:42:00,
2013-10-06 23:47:00,62.4,55.4,29.90,ESE,122,0.0,6.0,78,0.00,,,0.00,meteohub,2013-10-07 03:47:00,
2013-10-06 23:52:00,62.4,55.4,29.90,SSE,168,0.0,6.0,78,0.00,,,0.00,meteohub,2013-10-07 03:52:00,
2013-10-06 23:57:00,62.2,55.6,29.87,SE,145,0.0,4.0,79,0.00,,,0.00,meteohub,2013-10-07 03:57:00,